Showing default

COSMOS 83, 1573

Orbit data source: Space-Track

COSMOS 83, 1573 is a payload satellite owned by OKB-10 (CIS) in LEO that was launched on Fri, 03 Sep 1965 UTC via a KOSMOS 65S3 launch vehicle from the Tyuratam Missile And Space Complex (TTMTR). Payloads include a variety of satellites, spacecraft, and rockets equipped with specific instruments for various scientific and technological missions. These include communications satellites like Starlink; space stations such as the ISS; scientific satellites like the Hubble; Earth observation satellites from companies like Planet Labs, Umbra, and HawkEye 360; GPS; miniature CubeSats for education and research; and military/defense satellites.

Loading next visibility...
COSMOS 83 details
Identifier
1573, 1965-070D
Orbit
LEO
Last TLE update20 hours ago
Origin
Flag of CISOKB-10 (CIS)
ManufacturerOKB-10
MissionDefense Communications
Bus & MotorSTRELA-1 11F610, Unknown motor
Mass50 kg wet, 50 kg dry
Launch date (UTC)
1965-09-03 (59 years ago)
Launch vehicle
KOSMOS 65S3
Launch site
Tyuratam Missile And Space Complex (TTMTR)
Object type
Payload
Rocket body
Debris
Shape & HBRPoly, 0.8 m
Radar Cross Section0.731 m², Medium (>0.1 m² and < 1m²)

Expand to show TLE details & history

TLE from 20 hours ago
0 COSMOS 83
1 01573U 65070D   24355.65823228 -.00000090  00000-0  24630-4 0  9998
2 01573  56.0559 346.2081 0069496  75.5838 285.2764 12.41036721687734
Epoch: 2024-12-20T15:47Z
Definitive object data (Epoch: 2024-12-20T15:47:51.268Z)
Latitude-0.00008°
Longitude19.52385°
Altitude1,489.186 km
Speed7.126 km/s
True Right ascension23h 04m 49s
True Declination0° 00' 00"
Sunlit
Object was in daylight at TLE epoch
Visualization TLE readout
Latitude34.99112°
Longitude169.34729°
Altitude1,477.17 km
Speed7.141 km/s
Apparent Right ascension05h 55m 53s
Apparent Declination7° 41' 29"
Sunlit
Object is in full shadow
Visualization observer readout
Local Sidereal Time10:52:59
Azimuth265.822° W
Elevation16.97°
Doppler factor1
Orbital elements
Apogee altitude1,556.8 km
Perigee altitude1,447.272 km
Semi-major axis7,880.173 km
Eccentricity0.0069496
Inclination56.0559°
RAAN346.2081°
Arg. of periapsis75.5838°
True anomaly284.50643°
Mean anomaly285.2764°
Eccentric anomaly284.89159°
Mean motion3.1027 °/min
BSTAR0.00002463
Orbital period116.03 mins
Loading maneuver chart data...
Loading historical data...
Loading historical data...
Loading historical data...
Loading historical data...
Loading historical data...
Loading historical data...
Loading historical data...

COSMOS 83 Visibility forecast

Observer location: undefined°, undefined

Span
Click to sort rows by Start time (UTC) header in descending order
Start Az.
Max El. time (UTC)
Max El. Az.
Max El.
End time (UTC)
End Az.
8 mins2024-12-21 11:51:16.969Z265.619° W2024-12-21 11:53:16.969Z249.585° W17.926°2024-12-21 11:59:16.969Z206.376° SW
15 mins2024-12-22 00:46:16.969Z188.135° SSW2024-12-22 00:53:16.969Z123.628° SE34.948°2024-12-22 01:01:16.969Z55.77° ENE
15 mins2024-12-22 02:47:16.969Z248.122° W2024-12-22 02:54:16.969Z320.785° NNW40.406°2024-12-22 03:02:16.969Z40.829° NE
13 mins2024-12-22 04:51:16.969Z296.772° NW2024-12-22 04:57:16.969Z346.955° N26.031°2024-12-22 05:04:16.969Z44.738° NE
13 mins2024-12-22 06:55:16.969Z322.678° NNW2024-12-22 07:01:16.969Z15.457° NNE28.456°2024-12-22 07:08:16.969Z75.799° E
16 mins2024-12-22 08:56:16.969Z316.896° NNW2024-12-22 09:04:16.969Z53.497° ENE44.126°2024-12-22 09:12:16.969Z127.837° SE
12 mins2024-12-22 10:59:16.969Z289.01° WNW2024-12-22 11:04:16.969Z245.951° WSW26.874°2024-12-22 11:11:16.969Z187.805° SSW
|